Theta_e
339 340 341 342 342 343 345 346 347 348 349 350 350 350 350 350 351 350 351 352 352 351 350 349 349 348 349 350 349 350 350 351 351 351 353 356 358 359 359 358 358 360 361 358 357 361 356 356 360 358 358 356 355 354 354 354 352 351 353 355 350 347 345 338 338 336 332 329 330 332 336 341 347 343 339 340 343 346 349 348 349 350 349 350 352
339 339 340 341 342 343 344 345 347 345 347 350 349 349 350 350 350 351 351 352 352 351 351 350 350 350 349 349 350 349 350 351 350 349 352 355 358 359 359 358 358 359 361 358 357 358 354 355 358 356 356 355 354 357 353 361 356 352 353 348 351 346 342 338 337 333 330 324 324 326 331 330 343 335 336 337 340 344 346 345 347 348 347 349 351
337 338 339 341 341 342 343 344 346 347 347 349 350 349 349 349 350 352 352 352 352 352 351 350 351 351 350 350 351 349 351 352 352 351 353 353 357 359 360 358 358 358 360 360 357 358 355 354 355 357 354 357 355 352 352 353 352 352 351 347 346 349 348 343 335 331 328 331 329 327 323 320 328 330 334 336 337 341 343 344 347 347 348 348 350
335 337 338 340 341 341 342 342 345 347 347 348 349 349 349 350 349 351 352 352 352 353 353 352 352 351 351 351 352 351 350 352 353 353 352 353 355 358 359 359 359 358 359 360 359 358 357 354 356 357 354 357 355 352 350 350 352 351 350 352 347 343 341 336 344 338 334 329 323 323 321 319 317 321 327 332 335 340 342 343 346 346 346 347 348
336 337 337 339 339 340 341 342 345 346 347 347 348 349 349 349 349 351 352 352 352 354 353 352 354 351 352 351 352 352 352 351 349 349 351 354 355 356 357 359 359 359 359 360 359 357 357 357 357 358 356 357 356 354 352 353 354 354 353 351 347 342 340 334 340 339 335 333 331 325 321 319 318 321 328 328 334 334 339 342 346 344 345 346 347
337 337 337 338 339 340 341 342 344 345 346 348 349 349 349 349 350 351 352 352 352 353 353 353 352 350 349 347 346 346 346 346 346 346 347 352 353 356 358 359 359 359 359 359 360 359 357 359 360 359 358 359 358 356 355 354 355 354 355 352 349 344 341 331 333 345 339 345 336 329 324 321 322 324 323 321 334 333 334 339 343 343 343 346 345
338 338 338 338 339 340 340 341 343 344 346 349 349 349 350 349 350 351 352 352 352 353 353 354 351 350 349 348 347 347 346 347 349 349 348 352 355 355 356 358 359 358 359 359 359 359 358 360 361 361 360 359 361 357 354 355 357 357 356 352 350 351 336 329 332 336 337 340 345 343 345 343 330 324 321 322 321 326 330 332 337 338 340 343 343
337 337 337 338 339 339 339 341 343 345 347 349 349 349 349 349 350 350 352 353 353 353 352 353 351 350 349 348 348 347 347 347 348 348 348 352 354 355 356 357 358 359 359 358 359 359 360 360 360 361 360 360 361 357 356 357 357 357 357 355 351 351 343 331 330 333 332 332 340 336 345 344 337 333 329 325 322 320 322 329 330 334 336 338 342
337 337 337 337 338 339 341 341 343 345 346 347 349 349 350 349 351 351 351 352 352 353 352 352 353 351 350 349 348 349 348 348 349 348 347 351 351 353 355 356 357 358 358 358 358 359 362 360 360 361 361 360 362 358 357 358 357 355 355 353 350 351 347 338 333 333 331 330 332 334 334 334 334 335 332 332 325 321 321 322 323 330 332 332 336
338 338 338 338 339 340 341 342 343 345 347 349 349 350 350 349 350 350 350 352 352 353 353 352 352 352 349 349 347 347 349 347 348 347 347 348 348 351 353 354 355 356 357 358 358 358 361 361 360 361 361 362 362 359 358 358 357 355 355 354 352 349 349 344 335 335 333 332 332 332 332 333 329 329 330 328 328 324 321 322 323 324 324 327 332
337 338 338 338 339 340 341 341 342 344 346 347 348 348 349 349 349 349 350 351 352 352 352 351 351 351 349 349 348 346 347 347 346 346 347 346 345 348 352 353 354 354 356 357 358 358 359 362 361 362 362 363 363 359 358 357 358 357 356 355 354 350 349 348 345 339 337 336 333 331 331 330 327 326 327 329 326 324 323 325 326 325 326 324 328
337 338 338 338 338 338 340 340 341 342 344 346 347 348 348 349 348 349 349 350 351 351 351 351 351 350 350 349 348 348 347 348 346 345 346 346 345 345 350 352 353 354 354 356 356 358 359 361 363 363 362 362 362 361 360 358 359 358 356 354 354 351 350 350 345 340 335 338 333 333 331 334 332 329 331 330 329 326 326 324 325 326 326 325 331
337 337 337 337 337 337 338 339 340 341 343 345 346 346 347 348 348 347 348 349 350 351 350 350 350 350 350 349 349 349 347 349 347 346 347 347 346 344 348 350 351 352 353 354 356 357 358 359 360 361 362 361 362 360 359 359 359 358 357 355 354 351 350 349 346 342 339 339 335 336 331 339 336 335 336 331 331 330 328 324 327 328 323 324 329
337 337 338 337 337 338 339 339 340 341 343 344 345 346 346 347 348 347 348 349 350 350 350 349 349 350 350 349 349 350 348 348 349 347 347 348 348 346 347 350 351 352 353 353 356 357 358 360 360 361 362 362 361 360 359 360 359 357 357 355 355 353 351 349 348 344 341 341 339 338 335 336 338 339 337 335 337 331 328 327 327 330 326 325 328
338 338 338 338 338 338 339 340 341 342 343 344 344 345 345 346 347 347 347 349 349 349 350 349 349 349 350 350 349 350 349 348 350 349 348 348 349 348 347 350 351 352 354 355 356 357 357 359 360 360 361 362 361 360 360 360 359 358 357 356 356 354 352 351 349 346 342 341 339 337 338 336 336 337 336 336 339 333 331 330 328 326 325 325 327
338 338 338 338 339 339 340 340 341 342 343 344 344 345 345 346 347 347 347 348 349 350 349 349 349 349 349 349 349 350 351 350 349 351 350 349 349 350 349 350 352 353 354 355 355 357 356 358 360 360 360 361 361 361 360 359 358 358 356 355 355 357 354 350 350 349 344 341 341 339 337 336 337 337 337 335 335 335 333 332 330 328 324 320 323
337 338 338 338 339 339 340 341 341 343 344 344 344 346 345 346 347 347 347 348 349 350 349 349 349 348 349 349 350 349 350 350 349 349 351 351 350 350 351 351 353 354 355 356 355 356 356 357 358 359 359 360 361 361 360 359 359 358 357 355 354 356 355 351 350 349 347 342 341 340 338 337 336 337 337 335 334 335 335 333 332 329 327 323 320
337 338 339 339 339 339 340 342 342 342 344 345 345 346 347 347 348 347 347 347 348 350 350 349 348 348 348 349 350 350 350 351 351 350 351 352 351 351 351 352 352 355 356 357 356 355 355 360 357 358 359 360 360 361 361 360 359 358 357 356 356 356 355 353 352 351 348 344 341 341 340 338 339 340 339 336 333 334 334 334 334 332 330 327 324
336 337 338 338 339 339 340 341 343 344 345 346 347 348 348 348 349 349 348 348 349 350 351 351 350 349 350 350 350 350 351 351 352 352 351 351 352 352 351 352 354 355 356 356 356 356 355 356 356 357 358 358 360 360 360 360 359 358 357 356 356 355 354 353 352 351 349 346 343 340 340 340 340 340 342 342 337 335 334 333 334 334 331 330 328
335 336 338 338 339 340 340 341 342 343 344 346 348 349 349 349 349 349 350 350 350 349 351 351 351 350 350 351 351 351 352 352 352 352 351 351 353 353 352 351 353 356 356 357 356 356 355 354 356 357 357 357 358 360 360 360 359 358 357 356 356 355 354 353 353 353 351 348 345 342 340 340 340 341 342 342 341 337 338 334 334 334 333 331 331
335 336 337 338 339 340 341 342 343 344 345 346 348 349 349 350 350 350 349 349 349 350 350 351 352 351 351 350 351 351 351 352 352 352 351 351 352 354 354 353 353 354 356 356 356 356 355 355 355 356 356 356 356 357 359 359 359 357 357 357 356 355 353 353 353 352 352 349 346 344 343 341 341 340 340 342 341 339 337 338 336 336 334 334 332
335 336 338 339 339 340 341 342 344 344 344 345 348 349 350 350 351 351 351 350 350 350 350 351 352 352 351 351 351 352 352 353 352 352 351 351 351 352 355 355 353 354 356 356 357 357 356 355 354 355 356 357 357 356 358 359 358 357 357 357 356 355 353 353 353 352 352 351 348 346 344 343 341 340 340 340 341 341 337 337 337 337 335 336 335
335 336 338 339 340 340 341 341 342 343 344 345 346 348 350 350 351 352 351 351 351 351 352 352 351 352 352 352 352 352 353 353 352 352 352 352 351 350 353 355 355 355 356 357 356 356 356 356 355 355 355 356 356 356 357 358 358 357 357 357 357 356 355 353 352 352 352 351 349 347 346 345 344 341 341 341 341 341 340 337 336 338 336 336 337
335 337 338 339 340 340 340 340 342 343 344 345 346 347 349 351 352 352 351 351 352 352 352 352 351 351 352 352 351 352 352 353 352 353 352 352 352 351 351 352 356 357 356 357 357 356 356 355 355 355 355 355 356 356 356 357 358 358 357 357 356 356 356 355 354 353 352 351 350 348 347 346 345 342 341 341 340 341 340 338 336 336 337 336 337
334 335 336 338 339 339 339 340 341 343 344 345 345 346 347 349 352 353 353 353 353 353 353 352 352 351 352 352 352 352 351 352 352 353 353 353 353 352 351 350 352 355 357 357 357 357 356 355 355 354 355 355 355 356 356 356 357 358 358 357 357 356 356 355 355 354 356 352 350 349 348 347 346 344 343 341 341 339 341 339 337 335 336 337 337
333 334 335 335 337 339 340 340 341 342 344 344 345 345 347 348 351 353 354 354 354 354 354 353 353 352 351 351 352 352 351 351 352 353 353 353 353 352 351 351 350 351 354 357 356 356 356 356 355 355 355 355 356 356 356 356 356 357 358 358 357 357 356 356 355 355 355 353 351 350 349 348 346 345 344 343 342 340 340 339 338 337 335 336 336
332 333 334 335 336 337 339 340 341 342 344 344 345 345 346 348 350 353 355 355 355 355 354 353 353 353 352 352 352 352 352 352 352 352 353 353 353 353 352 350 351 350 350 353 356 356 355 356 356 356 355 355 355 356 356 356 356 357 357 357 357 356 356 356 356 356 355 355 353 351 350 349 348 347 346 345 343 342 341 340 340 339 337 335 335
332 333 332 333 334 336 337 339 340 341 343 345 345 346 346 348 350 352 354 355 356 355 355 354 354 353 352 353 353 353 353 353 353 353 353 353 353 352 352 351 351 349 349 350 353 356 356 355 355 356 356 356 355 355 356 357 357 357 357 357 357 356 356 355 355 356 356 355 355 354 352 350 349 348 347 347 346 343 342 340 341 340 338 336 335
330 331 332 333 333 335 337 338 339 341 342 345 346 346 347 348 351 353 355 355 357 356 355 355 354 353 353 354 354 354 354 354 354 353 352 352 352 352 352 351 350 350 350 350 351 354 355 355 354 355 356 357 356 355 355 356 357 356 357 356 357 356 356 355 354 355 355 355 355 355 354 352 351 347 342 343 343 341 345 341 341 341 340 338 336
329 330 332 333 334 335 337 338 338 339 341 344 347 347 348 348 350 353 354 356 357 356 356 355 354 354 354 354 355 355 354 354 353 353 352 352 352 351 351 350 350 350 350 350 350 351 353 354 354 353 354 356 357 357 348 336 341 356 356 357 357 356 356 355 354 353 353 354 355 355 356 348 342 340 338 336 336 335 336 343 344 341 341 339 337
329 330 331 332 333 335 337 338 339 340 341 343 346 348 350 350 350 352 354 357 358 357 356 356 355 355 355 355 354 354 354 353 353 353 353 352 352 351 350 350 350 350 350 350 350 350 351 352 353 353 353 353 355 356 339 333 333 337 352 356 356 355 356 355 355 353 352 353 354 355 355 352 344 340 341 334 335 334 333 335 337 338 338 341 338
329 330 331 332 334 334 336 338 340 341 341 343 344 347 349 350 351 351 353 357 358 358 357 357 357 356 356 355 355 354 354 353 353 352 352 352 352 351 350 349 348 349 350 350 350 350 351 352 353 353 353 353 353 340 334 332 332 331 337 356 356 356 356 355 355 354 354 353 353 353 354 355 354 351 350 346 337 332 331 332 333 334 334 335 337
329 331 332 333 335 336 338 340 341 342 343 344 346 346 348 350 351 352 353 354 357 358 358 357 358 357 356 356 355 354 354 353 353 353 353 352 351 350 349 348 347 348 349 349 349 350 350 351 352 352 352 354 354 339 332 330 331 330 330 341 356 356 355 355 355 355 354 353 353 352 353 354 355 344 347 350 348 344 331 328 330 332 333 332 332
337 336 336 338 339 338 339 341 343 345 346 347 349 348 349 351 352 352 352 352 353 356 357 357 358 357 357 356 356 354 353 353 353 353 352 351 350 349 349 349 349 348 348 349 349 349 350 349 350 351 352 353 354 340 330 327 328 328 329 333 354 356 355 355 355 355 355 354 353 352 351 352 354 354 352 351 350 349 346 341 337 337 339 339 330
342 342 343 343 343 343 343 343 344 345 346 347 349 352 352 352 352 352 352 352 352 353 355 356 357 357 357 357 356 355 353 353 353 352 352 351 351 350 349 349 349 348 347 348 349 349 349 350 350 351 351 352 354 337 329 326 325 325 327 329 351 356 356 355 355 355 355 355 354 354 353 352 352 353 354 351 351 350 349 347 343 341 340 342 343
340 341 341 341 342 343 344 344 345 342 341 346 349 351 352 353 354 353 353 352 352 352 352 355 356 356 356 357 356 355 354 353 352 351 351 351 351 351 349 349 349 349 349 349 350 351 350 350 350 350 350 350 353 333 327 324 323 323 325 338 349 353 355 355 355 355 355 356 355 355 353 353 353 352 345 334 340 351 350 348 346 344 343 343 343
340 342 342 344 348 350 350 351 352 353 354 353 349 345 351 352 352 353 353 353 352 351 351 352 354 355 356 356 357 355 354 353 352 351 350 350 350 351 351 351 349 349 348 348 349 350 352 352 352 352 350 350 352 338 325 322 321 321 324 343 348 351 354 355 355 355 355 355 356 356 355 354 353 353 342 332 330 336 350 349 347 346 345 344 344
344 347 349 350 350 351 353 351 351 352 353 355 356 355 355 354 348 349 351 351 351 351 352 352 353 354 355 356 357 356 355 354 353 351 351 350 351 351 351 352 350 349 348 349 349 350 352 353 353 353 353 352 352 342 322 319 319 319 327 345 348 350 352 353 354 355 356 355 355 348 355 355 354 354 337 329 329 333 347 349 349 347 346 344 345
342 344 345 346 349 352 352 351 350 350 353 357 358 355 355 354 357 351 345 347 349 350 351 351 352 354 355 356 357 357 356 355 354 353 353 351 351 351 351 352 351 350 350 350 350 349 350 351 353 354 348 351 354 344 317 319 317 318 328 347 350 351 351 352 353 354 355 355 355 350 344 344 349 347 333 328 326 331 347 350 350 349 347 346 347
341 342 344 346 347 349 349 348 348 349 353 355 355 356 359 357 354 356 351 344 345 348 350 351 352 354 355 356 357 357 357 356 355 354 354 354 353 352 351 351 351 351 350 350 350 349 349 350 351 352 354 354 354 354 332 317 316 316 320 345 351 351 350 351 352 353 353 354 355 354 348 329 327 329 327 324 323 321 344 350 351 349 348 347 350
339 340 345 340 343 345 347 348 349 350 352 352 353 355 354 355 353 351 353 356 356 347 348 351 352 354 355 355 357 357 357 357 356 356 356 355 355 353 353 352 352 352 351 350 350 350 349 350 350 351 352 353 354 354 341 314 315 315 316 327 350 352 352 353 353 352 353 353 354 354 355 338 325 323 321 321 319 318 325 348 351 350 350 349 346
340 344 342 337 339 340 346 348 349 350 350 350 352 356 356 353 351 353 355 361 362 359 349 350 352 354 355 355 357 358 359 358 358 357 356 355 356 356 355 354 353 353 351 350 350 349 350 350 351 352 352 353 354 346 353 316 315 313 315 316 343 353 353 354 353 354 354 354 355 356 356 343 328 322 320 318 317 317 318 336 348 333 333 332 344
335 336 340 339 337 338 343 347 348 349 349 349 349 350 353 351 348 350 355 357 359 361 352 349 351 354 355 356 357 358 358 360 358 358 357 356 357 357 356 356 354 354 353 352 352 351 350 350 350 351 352 354 355 352 336 331 314 313 312 313 321 339 335 352 355 354 354 355 357 357 355 340 327 321 317 316 316 317 317 326 323 324 326 327 333
336 337 338 339 338 339 342 344 344 345 347 348 348 348 351 351 345 352 353 356 357 357 353 349 350 353 355 356 358 359 360 360 360 359 358 357 357 358 358 357 356 355 354 353 353 353 352 351 351 350 352 353 355 355 337 327 326 313 313 312 313 319 328 346 354 356 356 356 357 358 352 332 323 316 315 315 316 316 326 319 316 319 322 325 337
336 337 339 339 340 341 341 342 342 343 344 345 346 346 347 346 347 351 352 353 356 357 355 349 349 352 354 356 358 360 360 361 360 360 358 358 358 359 357 357 357 356 355 354 354 353 353 352 351 351 350 351 355 356 355 336 323 316 313 312 312 315 318 322 344 354 353 349 319 309 311 316 318 316 314 313 314 314 312 313 314 315 319 329 334
339 339 339 340 342 342 341 341 341 342 344 345 343 343 342 343 349 350 351 352 355 357 358 351 349 352 354 357 358 359 361 361 361 361 361 360 360 359 358 357 358 357 356 355 354 353 352 352 351 352 350 352 353 355 358 351 333 322 317 313 312 313 315 316 318 327 318 315 315 315 316 323 325 326 331 335 336 336 322 318 316 318 327 330 331
337 340 341 339 341 340 340 340 339 340 341 344 343 342 342 344 348 348 350 351 354 358 359 355 351 353 356 357 358 359 360 362 362 362 362 362 362 361 359 357 358 358 356 355 355 353 352 352 352 352 353 352 353 351 342 338 334 333 332 328 322 323 318 317 325 331 327 333 333 333 334 326 322 323 325 323 326 329 330 331 332 331 331 333 334
336 339 340 340 339 338 338 338 337 338 339 340 341 342 342 343 345 347 348 351 355 361 357 353 354 356 357 357 358 369 364 361 362 363 362 363 362 362 360 358 358 358 356 356 355 354 353 354 354 354 354 353 348 340 340 340 336 333 331 330 330 332 330 329 331 334 335 338 338 330 329 336 338 339 340 339 338 336 334 333 335 335 335 334 333
335 337 339 339 339 339 337 337 336 337 338 338 339 341 343 344 345 347 348 350 355 357 352 347 351 356 358 360 359 364 360 361 354 331 319 315 318 334 351 356 340 340 358 360 358 357 356 357 357 356 356 347 340 338 335 312 318 315 331 332 331 331 331 330 328 324 333 333 332 333 333 334 334 335 337 339 340 341 341 340 339 338 338 338 337
335 336 336 338 341 340 339 339 339 339 339 339 340 341 342 343 345 347 348 348 348 348 347 347 348 349 353 356 359 361 360 359 348 335 330 323 316 303 308 328 328 322 309 315 337 353 354 341 331 320 328 347 344 335 307 301 300 297 296 297 297 299 306 316 313 315 327 329 329 329 330 330 331 331 332 333 336 336 336 337 338 331 337 338 337
335 335 336 336 338 341 340 339 339 340 339 339 339 340 341 342 344 345 347 346 345 345 345 345 346 347 347 352 354 357 357 355 347 341 335 329 325 319 303 301 310 312 307 301 302 308 314 320 329 322 314 307 307 301 299 298 297 297 297 297 297 298 301 304 311 325 327 325 325 325 327 328 328 328 329 330 331 331 330 330 331 331 332 332 330
Wind_Speed
16 18 18 18 18 17 16 15 15 16 16 16 16 15 14 14 13 14 13 13 11 10 9 10 10 8 7 9 9 7 7 6 6 6 7 7 8 8 8 7 6 6 6 6 6 5 5 5 4 4 4 4 5 5 4 4 3 3 2 1 1 0 1 0 1 3 5 3 3 5 4 3 4 3 5 5 5 5 5 5 4 5 4 4 4
14 15 16 17 16 17 17 15 15 17 16 17 18 18 16 14 15 13 12 13 13 12 11 10 10 10 10 10 8 8 7 7 7 6 8 7 8 8 8 7 8 7 6 6 6 6 6 5 5 5 5 5 4 3 3 3 2 2 2 1 0 1 0 2 4 4 1 3 3 1 3 3 3 5 6 4 5 4 4 4 4 5 5 4 4
15 17 17 17 19 17 16 16 17 19 19 19 18 17 17 15 13 13 13 14 13 12 11 11 9 8 8 7 9 6 6 6 6 5 7 8 8 8 8 8 8 7 7 7 6 5 6 6 6 5 5 5 4 3 3 3 3 3 3 3 1 0 0 1 4 3 3 2 2 4 1 3 0 1 2 5 6 5 4 5 5 4 5 4 4
19 19 18 19 19 18 16 16 17 17 16 16 17 18 15 14 14 14 14 13 13 12 12 9 9 6 5 6 6 8 7 5 5 4 6 8 9 8 8 8 9 8 8 7 6 6 6 6 5 5 6 5 5 5 3 3 3 3 2 2 2 1 1 1 2 2 4 7 3 2 3 4 2 1 2 2 5 7 6 5 5 4 4 3 3
20 20 18 18 19 20 19 16 16 17 17 18 18 17 13 17 16 16 14 14 13 13 12 9 8 6 5 5 4 4 3 4 5 4 5 7 8 8 9 9 9 9 8 8 7 7 6 6 6 6 6 5 5 5 5 5 4 4 4 3 3 3 2 2 1 1 4 3 5 3 2 2 2 3 1 1 3 5 6 6 5 5 5 5 5
22 23 22 21 21 19 17 17 18 18 18 18 18 19 17 16 15 15 13 13 14 14 13 11 10 11 9 9 9 8 8 8 10 11 7 8 10 8 8 9 9 9 8 9 8 7 6 6 6 6 5 5 5 5 5 4 4 4 5 5 4 3 4 2 1 0 2 3 4 3 4 3 3 2 3 2 2 1 5 5 6 6 4 5 5
19 21 20 19 20 20 20 19 19 20 19 18 17 17 18 17 16 16 14 13 13 14 14 11 11 10 12 13 12 12 12 10 10 9 7 6 6 8 8 8 9 9 8 8 8 7 7 6 6 6 6 6 5 5 5 6 5 5 4 4 5 4 3 3 4 3 1 2 1 1 2 1 4 5 3 2 2 3 2 3 3 3 5 6 6
20 20 21 21 22 23 23 22 20 20 19 17 17 17 18 17 17 16 14 14 13 13 15 14 13 12 13 12 11 11 12 12 11 9 5 6 7 8 7 8 8 8 9 8 8 7 7 7 7 6 6 6 6 6 6 6 5 4 4 5 3 4 5 5 4 3 6 3 0 0 1 1 2 1 5 6 5 5 2 0 0 1 3 5 6
22 20 22 21 22 23 22 21 20 19 18 18 17 17 17 17 17 16 15 15 13 15 15 15 14 14 13 12 11 10 10 8 7 7 6 6 7 7 8 8 8 8 8 9 8 8 7 7 7 6 6 6 6 6 5 5 6 6 5 5 5 4 4 4 5 6 4 5 2 0 1 1 0 1 3 4 4 4 2 4 3 1 1 3 4
20 22 23 22 22 22 22 21 18 18 18 17 17 16 16 15 16 17 16 14 14 15 15 15 15 13 12 12 13 10 8 6 7 8 8 6 8 8 8 7 7 7 7 8 8 8 8 7 7 7 7 7 6 6 5 5 5 6 6 6 5 5 4 5 6 6 6 4 5 5 3 0 1 2 1 3 2 3 7 7 6 8 6 6 4
20 21 22 21 20 20 19 20 20 18 16 17 17 16 16 16 17 18 18 15 15 16 16 16 14 13 13 14 14 13 10 9 9 9 9 7 8 8 8 8 7 8 7 7 8 8 7 7 7 7 7 6 6 6 6 6 6 6 6 5 5 6 5 5 4 4 5 4 4 6 6 5 5 3 5 3 3 2 3 3 2 6 9 5 7
20 19 19 19 15 16 17 19 19 19 17 18 17 16 16 16 17 18 17 16 15 16 16 16 14 14 14 14 14 13 12 10 12 12 12 12 11 10 8 7 7 7 7 7 8 8 8 7 7 7 7 7 7 7 6 6 6 5 5 6 6 5 5 5 4 4 4 4 5 5 6 5 4 4 5 5 6 4 6 5 5 3 1 3 2
19 19 18 17 17 18 20 20 19 18 19 20 20 18 17 17 19 19 18 17 16 16 17 17 15 14 14 14 13 12 11 11 12 12 11 11 10 9 9 9 8 8 8 8 8 10 8 8 8 8 8 8 7 7 6 6 6 6 6 6 6 6 6 6 6 5 6 5 6 5 4 5 6 4 5 5 3 4 6 4 4 3 4 4 2
19 18 18 19 18 18 19 20 19 19 20 21 20 19 17 16 18 19 19 18 17 17 18 17 17 16 15 14 13 12 12 11 11 12 12 10 10 10 10 10 10 11 10 10 9 9 8 9 8 8 7 7 7 7 7 6 6 6 6 6 6 6 5 6 6 5 4 5 3 5 4 5 5 4 5 5 5 4 3 4 4 0 1 4 0
17 18 19 20 21 20 19 19 19 19 21 20 19 19 18 18 18 20 19 19 18 19 17 18 16 16 14 14 13 11 11 11 10 10 11 11 10 10 10 9 9 9 10 9 8 9 9 8 9 9 8 8 7 7 7 6 6 6 6 7 6 5 6 6 5 5 5 5 4 5 5 4 5 5 3 5 5 6 6 5 6 3 0 1 2
18 18 20 20 20 20 18 18 19 18 21 20 20 19 19 18 20 21 21 20 19 19 18 18 17 15 15 14 14 13 11 10 8 7 8 10 10 10 10 9 9 8 8 7 9 9 9 9 9 9 9 8 8 8 7 7 7 7 6 6 7 5 6 7 6 6 6 5 5 4 4 6 5 5 5 5 6 6 6 5 6 6 6 3 1
18 19 19 21 19 19 19 20 18 18 19 20 20 20 22 20 20 20 20 18 19 19 19 18 17 16 15 15 14 13 13 12 12 11 10 9 9 9 9 9 8 8 8 8 9 9 9 9 9 9 9 9 8 8 8 8 7 7 8 7 8 7 7 8 7 7 6 6 5 6 7 6 6 5 4 4 5 4 5 6 6 8 7 6 5
22 22 21 21 21 22 20 18 20 20 21 21 22 20 19 19 21 21 19 20 19 18 17 16 17 16 15 16 15 14 14 14 12 12 10 9 9 8 8 7 9 9 9 8 9 10 9 10 9 9 9 9 9 9 8 8 8 8 8 8 8 7 7 6 7 7 7 6 6 6 5 6 6 5 6 5 4 6 6 6 7 6 7 8 7
19 18 17 17 18 19 20 20 21 21 20 21 20 19 17 17 18 20 21 21 20 17 16 14 15 13 13 15 16 14 13 13 12 11 10 10 11 10 10 11 9 9 9 9 9 10 9 9 9 9 9 9 9 9 9 8 8 8 8 8 8 8 8 8 7 7 7 7 7 8 6 6 5 6 6 5 4 5 6 6 7 6 7 7 8
20 20 19 20 21 21 22 21 21 21 20 19 19 17 19 19 19 19 19 18 17 17 15 15 15 13 13 12 13 13 13 13 13 12 11 12 12 11 11 11 11 9 10 10 10 10 10 11 10 10 10 9 9 9 9 9 9 9 8 8 8 8 9 9 8 7 6 7 8 8 8 8 7 5 6 6 6 6 6 7 7 7 7 6 7
19 20 19 19 20 20 20 19 20 20 19 17 17 19 19 17 18 19 19 18 18 18 16 15 14 14 14 15 14 14 14 12 11 11 11 12 11 11 11 12 9 10 9 10 11 11 11 11 11 10 10 10 10 10 9 9 9 9 9 9 8 9 10 9 8 9 8 8 9 9 9 8 7 7 7 7 6 6 6 7 7 7 7 6 7
20 19 17 18 18 19 18 17 16 15 16 17 17 17 17 17 17 17 17 17 18 17 16 15 14 15 16 16 16 14 14 12 13 12 12 11 11 11 11 9 11 11 10 11 12 11 11 11 11 11 11 11 11 11 10 9 10 10 10 8 8 9 10 9 8 10 10 8 8 10 10 9 8 9 8 8 8 7 6 6 7 7 7 8 8
21 19 18 18 18 18 19 19 18 19 18 19 17 17 18 19 18 17 18 19 19 19 18 16 16 16 17 16 15 14 14 14 14 13 13 12 11 11 9 10 12 11 11 11 12 11 11 11 11 11 11 11 12 11 11 10 11 11 12 10 10 10 11 11 11 12 11 10 9 10 11 10 7 8 9 9 7 7 6 7 8 6 8 8 8
20 18 18 18 18 18 16 17 17 16 16 18 18 18 18 18 18 17 20 20 19 17 16 16 15 16 16 15 15 14 16 15 15 13 14 13 12 11 10 11 11 10 11 11 11 12 11 11 12 12 12 12 12 11 11 12 12 12 12 12 11 11 11 12 13 12 11 11 12 11 12 11 10 10 10 9 8 7 8 8 7 7 7 8 8
20 19 19 18 17 18 18 18 18 17 18 18 18 18 17 17 16 17 17 18 17 15 16 16 16 17 15 15 16 15 16 16 16 14 15 15 14 12 11 12 11 11 11 11 10 11 12 12 12 13 13 13 13 13 13 13 12 12 13 12 12 12 12 13 13 12 11 12 12 13 13 11 10 11 10 9 8 9 8 7 8 7 7 7 5
19 19 16 17 18 18 17 17 16 17 17 18 18 18 17 16 17 16 16 16 16 15 16 16 16 16 16 17 17 16 17 17 16 15 16 15 14 14 13 12 12 13 12 12 12 11 12 13 14 14 14 14 13 13 13 14 14 13 13 13 12 12 13 12 12 12 12 12 13 14 13 11 11 12 12 11 10 11 9 9 9 8 7 5 6
20 19 18 17 15 17 18 18 18 18 18 17 18 17 16 15 16 16 16 16 16 17 17 17 17 17 16 17 17 16 15 15 16 15 14 14 15 15 15 14 13 14 13 13 13 13 12 13 14 14 14 14 13 13 13 13 13 13 13 13 13 13 13 12 12 13 12 12 12 12 12 12 12 13 13 13 12 11 10 11 11 10 7 6 7
18 17 17 18 18 18 18 18 17 17 17 16 16 16 16 16 17 16 16 16 15 16 17 17 17 17 16 17 16 16 16 16 15 15 15 15 14 14 14 14 13 14 14 14 14 14 13 13 14 13 14 13 12 12 13 13 13 14 13 13 13 13 13 13 13 13 13 13 13 13 12 12 13 13 14 13 12 12 10 11 10 9 8 8 8
20 19 19 20 18 17 18 18 18 17 16 16 15 15 15 14 14 15 16 17 16 16 17 17 16 16 16 16 15 14 14 14 15 15 15 15 15 14 14 14 13 14 13 14 14 14 14 14 14 13 13 12 12 13 12 13 13 14 14 14 14 14 13 13 13 13 13 13 12 12 13 13 14 16 18 16 15 14 11 12 11 10 11 10 9
20 19 20 19 19 18 17 17 15 16 16 15 15 15 17 17 17 17 17 16 15 17 17 17 17 17 17 17 16 14 14 14 15 15 15 15 15 14 14 14 14 14 14 14 14 14 14 15 14 14 13 12 12 11 15 20 18 14 14 12 12 13 13 13 13 13 12 13 13 12 13 18 18 18 18 18 19 18 18 15 12 11 12 11 11
18 17 16 13 13 14 14 16 17 17 17 16 16 16 16 16 15 16 16 15 15 15 16 16 16 16 15 15 14 14 14 14 15 14 14 15 16 14 14 14 14 14 15 15 14 15 15 15 15 14 15 13 13 12 19 19 20 21 15 13 13 13 12 12 12 12 13 13 12 13 12 13 15 16 17 20 20 21 20 21 20 17 15 15 12
17 16 14 13 13 13 15 17 17 18 18 16 15 14 14 16 15 15 15 14 15 15 16 16 16 15 15 15 14 14 14 14 14 15 15 14 14 14 14 14 14 15 14 13 15 15 15 15 13 14 15 15 14 16 19 19 20 21 19 15 12 11 11 12 12 13 12 11 12 12 11 10 11 14 14 15 18 21 21 22 22 21 20 20 19
15 15 15 15 15 16 16 16 15 15 15 16 15 14 15 14 14 14 13 14 15 15 15 16 16 15 15 15 15 15 15 15 15 14 14 13 14 14 15 15 16 14 12 14 15 15 16 15 15 15 16 15 14 18 19 20 21 21 22 18 12 12 12 12 12 13 13 12 11 10 11 10 11 16 15 14 13 15 19 22 22 22 21 21 21
8 6 6 5 5 4 6 8 11 13 15 14 14 16 15 15 15 13 14 14 14 15 15 15 15 15 15 15 15 15 15 15 15 15 14 14 15 16 15 14 12 12 14 15 15 16 15 15 15 16 15 14 15 17 20 20 20 21 21 19 15 14 12 12 13 13 12 12 12 11 11 11 11 11 12 14 14 14 13 14 14 14 15 19 21
12 11 9 7 8 8 7 5 4 5 5 6 9 11 11 12 13 13 13 13 14 14 14 14 15 15 15 15 15 15 15 15 15 15 15 15 16 15 15 14 13 14 15 15 15 15 15 15 16 15 14 14 14 19 19 20 20 21 21 18 14 13 12 12 12 12 13 13 12 12 12 13 13 12 12 13 14 14 13 13 14 15 16 17 17
11 12 9 9 9 9 9 7 5 7 4 5 6 6 10 12 12 13 12 13 13 14 14 14 15 15 15 15 15 15 15 14 15 15 15 16 15 16 16 14 13 13 13 12 12 13 14 15 15 14 14 15 14 17 18 19 21 19 18 12 12 14 14 13 12 12 12 12 12 13 13 13 14 14 15 18 17 14 13 15 15 15 15 16 18
11 12 10 7 8 10 8 7 8 8 7 5 2 5 9 10 12 12 12 13 13 14 14 13 14 15 15 15 15 15 15 15 15 15 16 15 15 15 14 12 14 14 14 14 15 14 13 13 14 14 15 15 14 13 16 18 18 18 13 11 12 12 13 14 14 12 12 12 12 13 13 13 14 15 16 17 18 17 15 16 15 15 15 15 18
13 12 13 11 10 9 9 9 10 10 8 5 4 5 5 3 5 7 10 12 12 14 13 13 13 14 15 15 15 16 16 15 15 16 16 15 15 14 14 13 15 15 15 15 14 13 13 13 14 15 15 14 13 11 15 16 18 19 17 13 12 12 14 14 13 13 12 11 13 18 17 15 15 15 16 18 19 17 16 16 15 15 16 18 19
12 12 12 11 9 9 9 10 11 11 7 6 7 6 6 4 3 3 4 7 11 12 12 12 12 12 13 15 15 16 17 16 16 16 15 16 15 15 14 14 14 14 15 13 12 13 13 12 13 14 15 15 12 10 15 17 19 21 18 12 12 12 13 13 12 13 12 12 12 14 20 19 18 17 19 18 20 17 15 16 15 15 18 20 18
13 13 10 10 10 11 12 11 11 8 6 8 6 6 5 4 3 1 2 5 7 8 9 10 11 12 12 13 14 16 16 17 17 16 15 15 13 12 13 13 13 12 12 12 12 12 14 13 12 12 12 13 12 9 12 19 20 21 23 15 11 11 13 13 13 13 12 12 12 12 14 19 22 21 19 19 19 21 18 16 14 16 18 22 11
13 12 10 11 10 9 9 9 7 7 7 7 6 6 5 4 3 4 3 2 3 4 7 8 9 11 12 13 12 14 16 16 16 15 15 14 12 12 12 12 13 12 11 11 12 12 12 12 11 11 11 11 10 9 10 19 20 22 23 20 12 13 13 12 13 13 12 12 11 12 12 16 19 20 21 21 20 20 21 17 17 17 18 18 14
11 13 11 9 9 9 8 9 8 9 8 7 7 7 5 4 5 5 4 5 4 4 5 8 9 9 11 12 13 12 13 13 13 13 13 13 11 12 12 13 11 11 13 13 12 11 11 11 10 9 9 9 9 14 9 16 21 22 22 25 14 13 13 12 12 12 11 11 11 11 11 14 18 19 20 21 21 19 21 16 19 21 23 22 17
10 11 10 9 9 8 7 6 6 7 7 6 8 7 5 4 6 5 6 5 4 5 3 6 8 9 9 10 10 12 12 9 10 12 13 13 11 11 11 11 11 11 11 12 11 10 10 9 8 7 5 6 7 9 15 13 19 22 23 23 24 17 16 13 12 12 11 11 11 12 13 16 16 18 18 19 19 22 17 15 22 22 23 24 20
7 7 6 6 7 6 6 6 6 7 7 6 7 6 5 5 6 6 7 6 6 5 2 5 6 7 9 8 9 10 10 10 12 12 12 12 11 11 10 10 11 11 10 11 9 9 8 9 9 6 5 5 5 7 11 17 17 22 21 23 23 23 18 13 13 11 10 11 11 11 10 14 16 17 17 17 18 17 14 18 21 23 23 22 16
9 9 7 7 8 8 7 7 8 8 7 7 6 7 6 7 7 6 7 7 7 7 3 4 5 5 6 6 7 8 9 9 9 10 10 10 9 9 9 8 8 9 9 9 8 7 8 8 7 7 6 6 6 7 6 12 18 19 21 22 23 24 23 19 13 10 5 2 3 7 9 7 6 8 8 8 8 11 15 16 17 17 14 10 11
9 8 8 7 9 9 9 9 9 8 7 6 6 5 7 6 7 6 6 7 7 7 4 4 4 5 5 6 7 6 7 8 9 9 10 9 11 10 10 8 9 9 9 8 8 7 7 7 7 6 6 7 6 6 7 4 6 8 9 11 11 10 11 11 10 9 8 11 13 12 10 5 3 3 3 4 6 7 10 13 15 14 9 10 10
8 8 7 8 7 8 8 7 7 7 6 6 6 5 4 5 6 6 6 7 7 5 5 1 5 5 6 7 8 7 7 6 6 6 6 7 7 8 8 8 8 8 8 7 7 7 7 6 7 6 6 6 7 5 3 3 3 6 6 7 8 8 9 6 6 9 10 10 12 10 8 8 7 6 6 6 6 6 6 7 7 7 8 9 10
8 9 9 9 8 7 7 6 6 6 6 6 6 6 7 7 6 6 6 5 5 5 5 2 3 6 7 8 8 11 11 8 7 6 6 6 7 8 8 8 9 8 8 7 7 7 8 8 7 7 6 6 4 4 4 5 4 5 4 4 5 6 6 7 7 6 6 7 7 7 8 7 6 7 7 6 5 5 6 6 6 5 5 7 9
8 8 8 8 7 7 6 6 6 5 5 7 8 8 8 8 7 6 5 4 3 3 4 4 1 3 6 6 7 8 8 8 7 11 10 9 5 4 2 1 3 3 3 8 8 7 7 7 7 7 7 4 3 5 4 2 2 1 4 5 5 5 5 4 4 2 1 0 1 2 3 4 3 4 5 5 5 5 5 5 5 5 6 7 7
6 7 8 8 8 7 8 8 7 6 7 7 7 8 9 8 7 7 5 4 3 3 5 5 4 3 3 4 5 7 7 8 9 9 9 9 14 15 10 5 2 8 9 6 3 4 3 6 7 4 2 6 7 5 7 7 6 8 9 9 8 8 6 5 4 4 3 2 3 3 4 3 4 3 4 4 5 5 6 6 6 6 7 7 8
7 8 8 7 6 7 8 8 7 6 7 6 6 8 9 9 8 7 5 4 3 4 4 5 5 4 2 5 6 6 6 7 8 8 9 10 9 13 18 16 11 12 14 15 14 15 14 9 10 7 8 16 15 12 10 8 10 11 11 10 10 8 8 7 6 7 5 4 4 4 4 3 4 4 5 5 6 6 7 7 8 8 8 9 9
Wind_Direction
186 185 184 180 176 175 176 176 177 177 176 176 178 181 178 178 179 182 180 178 175 176 179 176 177 177 179 184 187 187 182 187 170 177 179 186 179 179 181 179 176 174 179 166 164 170 172 176 169 174 165 167 161 179 178 185 189 161 173 140 166 52 29 94 163 109 108 47 31 80 85 127 163 153 162 164 177 185 172 160 157 163 173 167 171
179 184 186 183 179 175 174 176 174 175 181 177 180 182 182 178 182 182 177 181 181 182 181 182 184 183 179 184 180 183 182 187 186 177 184 186 182 181 181 182 178 178 176 177 170 172 170 176 177 178 173 180 178 166 165 176 150 142 144 152 17 153 226 176 186 101 37 142 129 34 48 45 150 160 178 184 167 169 168 152 165 172 173 170 160
181 184 184 185 183 176 175 176 178 180 180 181 180 178 181 182 180 179 181 181 183 182 181 186 185 182 179 179 178 179 192 183 189 170 179 183 187 185 182 181 181 183 178 178 176 177 175 173 185 180 181 168 159 159 157 168 167 180 172 165 183 347 266 233 202 135 160 116 116 88 63 102 226 7 240 165 164 176 171 166 176 180 173 165 161
185 183 183 184 184 182 175 177 177 178 178 180 180 180 180 183 180 179 182 183 181 184 185 186 182 172 166 156 169 174 180 176 188 160 168 180 187 190 186 181 182 183 183 181 181 175 175 181 178 183 186 174 169 162 172 191 176 184 198 196 131 106 315 247 211 172 127 127 119 152 189 122 78 298 220 129 160 178 175 179 178 180 168 148 153
184 185 183 182 185 188 184 177 173 177 179 181 182 182 183 183 180 179 180 183 183 181 181 171 163 146 135 121 126 115 120 170 179 204 175 184 180 187 193 183 182 184 184 185 185 178 179 179 179 184 183 181 167 167 178 196 197 188 189 193 172 160 218 275 233 103 145 162 133 93 58 73 205 230 140 261 89 164 189 179 185 176 167 169 180
182 185 185 183 185 186 185 178 178 179 181 183 182 183 181 182 178 178 179 182 182 180 175 170 174 168 159 157 161 169 180 186 196 201 188 187 191 184 185 185 184 185 185 185 187 180 179 179 178 180 186 179 179 178 183 183 197 194 200 194 192 186 167 172 242 345 196 180 156 164 165 170 186 228 102 217 51 133 185 188 186 178 166 175 183
187 186 183 180 184 185 186 185 183 182 183 179 181 182 181 180 180 179 179 182 182 179 174 173 173 178 180 179 179 179 182 197 200 201 185 186 170 183 187 187 185 183 186 185 185 186 178 175 179 184 185 184 184 167 179 193 195 199 195 188 200 174 125 170 176 194 21 297 152 119 114 119 140 130 187 104 93 3 111 195 207 182 181 180 185
184 187 186 183 183 184 187 188 185 185 179 176 179 180 179 178 178 179 180 181 181 179 177 177 178 181 184 187 187 189 190 192 193 196 168 168 178 183 183 189 188 186 182 185 186 183 181 180 179 182 183 187 180 184 187 195 190 203 192 201 189 178 168 167 195 184 159 228 110 150 71 135 151 125 143 161 156 140 193 309 40 216 205 205 194
182 185 188 186 185 187 186 186 186 180 177 178 179 179 178 177 176 177 179 179 180 180 180 182 181 183 186 186 191 197 194 191 189 188 175 173 179 182 185 188 188 189 184 183 186 184 184 185 181 182 185 188 187 189 185 186 191 190 201 198 194 198 180 181 148 199 177 196 138 306 68 59 14 207 132 109 140 129 185 180 177 108 191 250 229
185 186 187 190 188 186 184 183 178 180 180 179 178 176 177 176 176 176 178 180 179 181 183 183 184 183 186 192 194 191 186 180 179 189 192 172 182 187 186 186 188 188 189 187 186 187 186 185 185 189 193 190 191 193 183 188 197 196 198 204 195 187 201 167 179 187 196 192 176 170 163 94 67 65 100 88 57 113 164 194 176 167 188 232 207
187 189 189 189 188 185 177 178 180 177 177 177 178 179 176 177 178 179 181 179 179 182 183 185 185 185 190 193 195 192 184 176 179 192 195 182 183 188 187 190 186 190 186 190 189 187 189 188 189 194 194 194 193 192 192 190 197 198 202 204 199 187 190 184 186 180 193 180 182 168 175 170 171 171 193 180 140 138 99 173 189 189 188 193 221
187 186 188 187 181 181 178 180 178 176 173 178 180 179 179 179 178 181 181 180 181 182 185 187 186 190 193 193 195 195 183 182 185 189 193 194 188 185 187 179 190 190 191 187 192 191 188 192 191 186 193 194 198 196 194 192 195 196 196 198 205 199 185 180 179 181 192 196 189 190 182 176 172 162 191 163 153 179 155 180 176 196 245 224 234
183 185 184 185 182 180 182 181 177 174 177 179 179 180 180 180 180 179 182 182 182 183 186 188 189 191 193 194 196 193 191 189 189 189 191 195 191 182 177 188 184 189 196 194 196 191 190 189 191 190 193 197 197 193 196 189 190 194 198 201 201 200 193 185 186 192 190 183 198 202 182 175 193 200 146 167 160 135 156 158 222 154 173 201 220
183 183 183 184 187 183 181 179 178 177 178 179 179 179 179 182 182 182 184 183 182 184 187 188 193 194 194 194 194 191 193 193 194 192 191 192 190 191 185 187 187 193 191 198 194 190 192 196 195 198 194 193 195 195 194 190 186 193 197 202 205 207 193 186 193 191 188 205 180 174 196 198 211 188 174 144 147 133 152 176 174 26 118 193 223
181 182 184 186 188 185 181 180 180 179 177 178 178 180 179 181 183 186 185 186 184 186 186 190 193 195 194 195 193 192 194 196 197 197 190 188 189 189 191 189 192 194 193 196 187 191 194 194 197 198 197 196 193 196 198 193 189 191 195 203 205 202 200 189 192 185 193 205 208 198 195 200 215 201 186 181 157 176 173 175 151 138 7 78 172
183 185 188 187 188 186 182 182 182 179 178 178 178 178 180 183 184 187 187 186 187 187 189 190 192 193 194 194 195 194 196 197 197 198 200 195 188 188 189 191 195 191 193 184 192 191 192 195 196 200 198 196 195 195 197 195 191 191 196 194 204 194 198 198 199 189 200 198 198 217 194 218 212 210 203 191 184 178 181 164 157 154 157 224 272
184 187 187 187 187 187 186 185 183 180 178 181 180 180 182 181 183 186 188 186 188 189 189 190 191 190 194 194 194 196 196 197 198 197 197 197 194 193 190 192 189 188 189 188 191 195 193 192 195 200 199 198 197 197 196 198 193 194 194 196 201 196 193 202 199 194 205 194 195 199 204 214 222 212 212 204 202 200 195 182 176 171 168 162 194
187 187 187 185 185 187 187 186 185 184 181 182 183 182 182 182 182 184 185 188 190 189 192 192 190 191 192 195 196 196 198 199 199 198 196 192 197 195 191 183 192 192 188 189 191 194 195 194 194 198 199 197 200 199 198 199 194 198 198 198 200 190 197 202 204 201 203 194 197 198 206 216 226 210 217 215 202 202 205 196 194 189 170 180 184
187 187 184 185 186 188 188 187 187 187 185 184 182 180 181 183 184 183 186 189 189 190 191 191 191 192 194 195 195 196 199 201 202 200 195 196 197 196 194 195 191 189 189 189 190 194 194 197 197 199 197 199 200 201 201 202 197 201 201 201 200 193 197 203 206 200 205 193 200 202 204 217 217 218 222 219 215 201 211 207 201 179 192 183 177
187 187 187 186 186 187 187 186 185 188 189 185 180 180 182 184 182 186 189 187 187 190 189 191 192 192 194 195 198 200 200 201 200 195 195 198 200 197 199 196 195 186 192 189 191 193 194 195 199 199 199 200 199 203 200 203 202 208 202 200 199 196 200 204 205 205 202 201 204 210 207 211 215 208 221 221 213 211 206 206 202 189 194 192 172
189 188 187 184 185 186 187 186 188 189 186 181 179 182 184 182 185 186 185 185 188 191 190 193 188 194 192 194 196 197 200 202 204 203 203 203 201 199 200 202 192 194 187 189 193 195 195 197 196 199 200 200 202 203 201 201 203 209 208 202 194 195 202 207 203 206 208 200 207 215 219 217 210 212 216 220 221 214 208 212 209 194 193 186 177
188 189 183 183 183 184 186 186 185 183 184 183 183 183 180 183 187 186 186 187 188 190 192 192 191 193 195 196 196 197 199 199 202 203 206 207 203 201 202 196 197 201 190 192 194 195 196 196 198 201 203 204 203 204 202 200 204 207 210 205 201 195 202 207 203 208 207 208 204 211 221 221 209 216 218 219 215 215 211 214 215 203 199 192 194
187 184 178 181 182 183 184 183 181 184 184 185 183 182 184 186 183 185 185 189 189 191 192 191 192 194 197 196 194 195 196 199 201 203 208 208 209 207 198 198 202 200 198 198 197 196 195 196 200 202 204 207 205 204 204 202 205 206 208 209 205 201 202 204 205 210 208 206 207 211 217 216 212 217 223 225 215 216 209 214 219 209 206 199 193
187 178 178 181 181 182 182 183 183 182 183 185 186 187 189 186 185 184 189 190 190 191 191 191 194 198 197 194 195 196 196 199 201 203 206 207 209 209 202 205 205 200 200 204 201 200 198 198 202 204 205 209 206 205 205 206 206 206 208 209 208 207 208 209 209 209 208 205 210 213 217 211 210 216 223 224 223 217 213 215 220 219 215 207 196
183 177 181 179 178 179 184 183 182 183 185 185 186 191 190 187 184 186 190 188 189 188 190 192 194 197 196 196 198 197 199 199 201 202 205 206 207 207 205 209 206 205 204 202 203 200 201 202 205 207 207 208 208 205 206 208 209 209 209 209 210 211 212 214 214 212 208 207 210 214 216 207 205 214 223 224 221 222 222 217 218 219 217 217 205
178 177 175 176 182 186 183 182 182 184 183 185 188 190 189 188 188 187 185 185 188 187 191 192 194 196 197 198 199 199 200 200 201 202 204 205 206 206 206 209 207 209 207 205 204 201 201 204 208 209 209 209 207 206 207 209 209 209 210 211 211 212 214 215 217 218 214 211 212 215 216 206 205 210 219 220 219 220 220 222 223 221 218 209 213
175 176 179 179 180 183 184 183 184 184 183 185 187 187 187 188 187 187 187 186 186 188 190 192 193 196 198 201 200 200 200 200 201 203 204 205 206 206 206 208 206 209 207 207 207 206 206 206 209 210 211 209 208 207 208 210 211 210 211 212 213 214 216 216 219 218 217 216 217 219 217 211 208 212 216 216 216 218 215 221 222 222 215 205 213
174 176 173 178 182 183 183 183 183 184 183 185 186 185 186 187 188 188 186 186 187 189 190 192 192 195 198 201 202 201 200 200 200 201 204 207 207 207 207 207 206 208 209 209 209 207 209 209 210 210 212 210 208 209 210 210 210 211 211 213 213 214 216 218 220 220 218 218 218 218 219 217 215 214 215 218 213 217 215 220 220 217 212 206 213
177 178 179 182 181 180 182 182 182 178 178 181 182 184 186 189 187 187 188 190 185 187 190 192 193 195 198 200 202 202 201 200 199 200 204 207 208 209 208 208 207 208 210 212 211 209 209 213 214 212 213 211 210 212 211 209 210 213 212 215 214 214 215 218 220 222 220 220 220 219 220 219 219 219 217 218 216 213 210 217 219 210 214 212 215
180 183 184 184 180 176 177 177 176 178 179 177 179 183 187 188 189 188 190 188 184 189 190 192 193 196 198 198 199 199 200 199 200 202 204 205 207 208 208 209 209 208 210 211 212 211 212 213 213 213 213 213 214 215 214 210 208 209 212 215 215 217 217 217 219 222 224 222 222 221 222 220 220 220 219 220 222 219 218 216 214 206 211 211 214
181 181 183 180 176 174 170 173 177 180 180 180 182 185 187 188 187 187 188 187 186 188 191 193 196 199 199 197 196 199 199 200 202 203 204 205 207 207 208 210 211 209 209 210 210 211 213 214 213 213 213 215 216 217 212 209 210 210 209 213 215 218 217 219 220 220 223 224 225 224 227 222 220 222 223 220 221 221 221 223 223 214 210 206 210
179 178 175 171 174 171 176 179 182 183 183 183 183 186 186 191 188 187 186 184 187 190 192 194 196 197 197 195 196 197 199 202 200 204 204 205 206 207 209 210 211 212 211 210 212 213 215 214 214 215 216 217 219 217 211 208 209 210 209 212 215 218 218 219 221 222 225 225 226 226 226 226 221 220 221 223 224 224 223 223 224 222 218 215 212
173 170 170 174 175 178 180 181 182 184 184 187 184 184 192 192 191 190 184 187 188 190 192 195 197 197 196 195 195 196 198 200 201 202 203 203 205 208 210 210 212 212 211 213 214 214 216 215 214 216 218 218 221 215 211 208 208 208 209 211 217 216 217 221 221 223 225 225 225 225 227 226 230 222 220 223 222 227 229 227 226 227 226 220 221
92 102 117 115 115 132 161 177 182 184 185 185 185 189 193 192 191 189 190 192 190 192 192 194 196 196 195 195 196 197 198 199 198 199 200 201 203 208 210 211 212 210 214 216 215 217 217 216 217 218 220 221 221 217 208 208 207 207 207 204 220 218 219 222 222 222 224 226 225 224 226 230 229 224 221 221 224 226 226 228 231 232 232 232 230
87 84 85 96 111 112 109 106 137 171 174 173 187 193 190 192 191 191 192 193 196 195 194 193 195 196 195 195 195 196 198 198 198 198 199 201 202 206 206 207 207 211 214 215 215 217 219 218 220 220 222 224 226 217 207 205 207 206 205 199 217 222 226 225 225 223 224 226 226 225 226 231 230 227 223 217 221 224 225 227 227 228 231 233 231
79 88 82 84 89 99 101 98 91 93 110 155 182 183 181 192 189 191 193 195 196 199 199 193 195 195 196 194 193 195 197 197 198 199 201 202 203 203 205 203 207 212 216 218 221 221 222 221 221 222 224 230 230 216 206 204 205 206 198 199 214 222 227 229 227 224 224 226 226 225 227 231 232 231 226 214 214 219 224 229 229 229 232 235 237
77 78 82 80 79 80 85 87 74 72 68 56 76 166 187 190 191 195 194 196 197 203 203 196 196 195 194 194 193 194 195 196 197 199 202 202 202 205 206 201 207 210 210 213 217 218 220 220 221 221 223 230 233 216 202 200 201 198 187 207 213 222 228 231 231 226 227 225 225 225 226 232 233 234 227 213 213 209 226 228 230 232 233 236 241
74 72 69 65 66 72 66 67 68 59 47 37 45 67 90 130 196 205 198 199 201 206 204 198 197 195 193 193 193 192 194 195 198 200 201 202 203 204 204 199 204 207 211 214 214 218 219 220 219 221 220 227 230 211 191 191 190 189 191 203 212 218 227 230 233 231 230 229 227 224 225 230 233 235 225 215 210 203 223 229 231 235 238 240 244
63 67 69 64 62 70 73 61 56 50 32 40 42 47 60 63 77 127 181 214 214 209 204 204 198 193 194 192 192 193 193 194 198 200 199 201 201 201 203 200 206 208 213 213 212 216 219 220 220 221 219 221 227 208 183 182 187 189 194 208 209 217 225 228 229 233 231 232 232 227 226 229 233 233 225 217 211 203 222 228 229 233 240 243 244
49 47 54 58 53 53 53 55 54 43 33 33 34 47 46 31 8 51 146 192 218 227 218 205 192 191 193 193 192 192 193 194 198 199 200 201 201 201 201 202 206 208 212 213 213 215 218 221 220 221 220 217 218 211 183 184 186 192 194 200 210 213 223 226 227 230 231 231 232 234 230 228 233 236 231 222 215 205 217 227 227 233 240 246 240
49 42 35 44 43 47 53 56 59 54 40 32 27 35 24 10 17 46 20 301 260 238 216 209 200 190 190 192 192 193 193 196 195 196 197 199 197 198 199 201 205 206 211 213 215 217 219 223 220 220 223 219 211 206 187 184 189 191 197 198 210 213 218 221 224 228 229 231 231 232 238 229 226 231 233 232 224 214 216 225 229 234 237 245 239
47 44 39 39 42 39 46 50 47 42 37 36 36 40 31 29 40 15 329 305 303 280 224 198 192 199 194 189 189 192 194 193 193 193 196 200 199 196 197 200 202 203 207 211 213 216 219 222 220 218 220 218 200 194 182 190 189 194 196 200 206 215 212 218 225 228 228 230 233 235 238 233 227 226 228 231 231 226 221 225 236 237 242 245 244
37 39 32 40 37 35 40 51 54 52 40 32 39 38 29 18 18 341 314 309 302 303 242 207 194 188 192 188 187 184 185 187 191 192 193 197 194 195 196 195 199 202 206 209 212 213 218 222 221 214 208 200 190 196 183 186 196 195 199 201 207 212 211 214 223 228 222 229 229 234 240 237 232 230 228 229 231 231 226 230 238 242 243 245 244
43 56 55 47 51 48 52 43 43 44 43 37 39 29 18 12 351 321 323 322 322 320 275 197 205 195 181 183 181 182 182 185 185 185 191 192 193 195 193 193 195 197 201 207 209 209 214 218 221 216 202 192 194 188 193 188 195 202 200 201 208 218 214 213 220 229 221 224 232 233 245 245 238 237 235 234 235 235 235 234 236 241 246 248 249
29 22 23 44 59 69 66 50 38 35 35 34 35 29 11 360 331 329 330 333 325 326 293 192 193 190 183 175 169 173 178 179 181 179 184 187 190 187 191 192 191 197 201 204 205 200 208 212 214 214 203 197 195 200 199 203 199 198 201 203 209 212 219 218 224 235 249 279 341 336 347 336 287 269 261 260 265 257 249 255 259 264 272 281 271
32 27 28 44 52 54 51 41 30 24 24 24 18 30 11 330 320 327 328 329 326 331 317 205 180 168 165 156 159 166 171 172 171 179 182 182 180 182 188 184 187 195 196 197 198 194 201 201 206 206 201 204 202 203 211 195 196 199 212 226 229 239 248 253 259 276 292 292 294 297 310 328 341 299 255 247 255 253 247 242 245 248 248 250 255
37 34 40 43 53 55 50 43 32 10 15 12 2 355 348 329 335 327 329 329 327 324 324 236 170 162 154 157 158 160 158 160 164 165 171 174 176 180 183 181 187 190 191 195 191 190 194 195 206 203 204 203 210 184 119 94 134 167 187 192 195 219 218 215 232 244 250 255 263 266 263 266 273 267 253 250 257 261 257 250 245 236 237 244 252
22 28 36 39 42 51 48 41 26 1 5 7 360 350 336 335 331 336 330 331 330 332 336 309 197 165 162 164 165 165 157 155 158 155 161 172 178 182 180 183 187 188 190 199 190 192 195 196 203 201 201 205 170 114 149 147 159 161 157 169 186 197 191 201 219 234 232 243 245 263 271 276 277 277 268 267 263 254 250 269 272 272 266 261 263
15 18 33 41 37 34 33 33 11 354 360 6 8 357 351 343 335 327 337 339 348 5 5 1 350 162 169 168 160 153 149 142 101 70 53 37 5 355 325 197 40 353 232 195 192 193 200 201 193 191 188 155 126 163 180 30 57 77 155 158 175 186 177 187 204 191 205 166 351 325 330 346 359 322 318 315 318 311 299 280 273 275 272 271 272
12 25 30 32 34 40 40 33 15 12 18 16 9 358 350 342 341 332 343 21 7 33 19 5 6 35 89 128 144 146 150 131 122 117 99 73 56 55 37 34 2 7 16 358 150 182 165 138 109 41 321 190 181 152 114 100 91 81 70 73 70 67 68 72 73 118 113 86 62 41 31 19 1 5 335 324 318 318 316 312 309 305 302 300 292
23 31 28 30 26 34 43 36 22 18 18 10 9 4 350 344 338 337 344 31 21 45 38 12 18 21 43 106 120 128 121 113 121 117 111 108 89 49 41 40 53 74 69 57 68 90 94 103 117 100 55 59 85 103 110 105 90 81 82 81 78 85 94 113 121 98 53 66 52 48 12 4 359 358 351 339 334 337 328 323 316 313 303 296 292